When you browse on this site, cookies collect data to enhance your experience and personalize the content and advertising you see.
Visit our Privacy Policy to learn more. By continuing to use the site, you agree to this use of cookies and data.
  • En España
  • Lista de países
  • Para 7 días
  • Temperatura del agua
  • El tiempo en el mapa
  • Informadores
  • user-avatar
    Iniciar sesión

    Tiempo cada hora La Calera

    Hoy, 20 Enero, Lunes

    Tiempo Temperatura Precipitaciones Viento Presión Humedad
    00:00 +14°C° 0 mm 0 mps 741 mmHg 94%
    01:00 +14°C° 0 mm 0 mps 741 mmHg 93%
    02:00 +14°C° 0 mm 0 mps 741 mmHg 93%
    03:00 +13°C° 0 mm 0 mps 741 mmHg 94%
    04:00 +13°C° 0 mm 0 mps 741 mmHg 94%
    05:00 +16°C° 0 mm 0 mps 742 mmHg 84%
    06:00 +21°C° 0 mm 1 mps 742 mmHg 75%
    07:00 +24°C° 0 mm 1 mps 742 mmHg 65%
    08:00 +26°C° 0 mm 2 mps 742 mmHg 59%
    09:00 +28°C° 0 mm 2 mps 742 mmHg 52%
    10:00 +30°C° 0 mm 3 mps 742 mmHg 46%
    11:00 +30°C° 0 mm 3 mps 743 mmHg 45%
    12:00 +30°C° 0 mm 4 mps 743 mmHg 45%
    13:00 +32°C° 0 mm 4 mps 743 mmHg 44%
    14:00 +30°C° 0 mm 4 mps 743 mmHg 45%
    15:00 +30°C° 0 mm 3 mps 742 mmHg 45%
    16:00 +29°C° 0 mm 3 mps 742 mmHg 46%
    17:00 +26°C° 0 mm 2 mps 742 mmHg 59%
    18:00 +23°C° 0 mm 2 mps 742 mmHg 71%
    19:00 +19°C° 0 mm 1 mps 743 mmHg 84%
    20:00 +18°C° 0 mm 1 mps 742 mmHg 86%
    21:00 +15°C° 0 mm 0 mps 742 mmHg 88%
    22:00 +15°C° 0 mm 0 mps 742 mmHg 91%
    23:00 +14°C° 0 mm 0 mps 742 mmHg 91%

    Mañana, 21 Enero, Martes

    Tiempo Temperatura Precipitaciones Viento Presión Humedad
    00:00 +14°C° 0 mm 0 mps 742 mmHg 90%
    01:00 +14°C° 0 mm 0 mps 741 mmHg 90%
    02:00 +13°C° 0 mm 0 mps 741 mmHg 91%
    03:00 +13°C° 0 mm 0 mps 741 mmHg 91%
    04:00 +13°C° 0 mm 0 mps 741 mmHg 91%
    05:00 +16°C° 0 mm 0 mps 741 mmHg 80%
    06:00 +19°C° 0 mm 0 mps 741 mmHg 69%
    07:00 +25°C° 0 mm 1 mps 742 mmHg 58%
    08:00 +27°C° 0 mm 1 mps 742 mmHg 53%
    09:00 +29°C° 0 mm 2 mps 742 mmHg 47%
    10:00 +31°C° 0 mm 3 mps 741 mmHg 41%
    11:00 +31°C° 0 mm 3 mps 741 mmHg 40%
    12:00 +33°C° 0 mm 4 mps 741 mmHg 39%
    13:00 +33°C° 0 mm 4 mps 741 mmHg 38%
    14:00 +32°C° 0 mm 4 mps 741 mmHg 40%
    15:00 +31°C° 0 mm 3 mps 741 mmHg 41%
    16:00 +30°C° 0 mm 3 mps 741 mmHg 42%
    17:00 +26°C° 0 mm 2 mps 741 mmHg 55%
    18:00 +22°C° 0 mm 1 mps 741 mmHg 68%
    19:00 +16°C° 0 mm 0 mps 741 mmHg 81%
    20:00 +16°C° 0 mm 0 mps 741 mmHg 82%
    21:00 +15°C° 0 mm 0 mps 741 mmHg 83%
    22:00 +14°C° 0 mm 0 mps 741 mmHg 84%
    23:00 +14°C° 0 mm 0 mps 741 mmHg 86%

    Pasado mañana, 22 Enero, Miércoles

    Tiempo Temperatura Precipitaciones Viento Presión Humedad
    00:00 +14°C° 0 mm 1 mps 740 mmHg 87%
    01:00 +14°C° 0 mm 1 mps 740 mmHg 89%
    02:00 +13°C° 0 mm 1 mps 740 mmHg 90%
    03:00 +13°C° 0 mm 1 mps 740 mmHg 92%
    04:00 +12°C° 0 mm 1 mps 740 mmHg 93%
    05:00 +15°C° 0 mm 1 mps 741 mmHg 84%
    06:00 +19°C° 0 mm 1 mps 741 mmHg 75%
    07:00 +22°C° 0 mm 1 mps 741 mmHg 66%
    08:00 +24°C° 0 mm 2 mps 742 mmHg 59%
    09:00 +26°C° 0 mm 3 mps 742 mmHg 51%
    10:00 +29°C° 0 mm 3 mps 742 mmHg 43%
    11:00 +29°C° 0 mm 4 mps 742 mmHg 43%
    12:00 +29°C° 0 mm 4 mps 742 mmHg 43%
    13:00 +30°C° 0 mm 4 mps 742 mmHg 43%
    14:00 +29°C° 0 mm 4 mps 742 mmHg 45%
    15:00 +29°C° 0 mm 4 mps 741 mmHg 47%
    16:00 +28°C° 0 mm 3 mps 741 mmHg 49%
    17:00 +25°C° 0 mm 3 mps 741 mmHg 62%
    18:00 +20°C° 0 mm 2 mps 741 mmHg 76%
    19:00 +18°C° 0 mm 1 mps 742 mmHg 89%
    20:00 +16°C° 0 mm 1 mps 742 mmHg 91%
    21:00 +15°C° 0 mm 1 mps 742 mmHg 94%
    22:00 +12°C° 0 mm 0 mps 742 mmHg 96%
    23:00 +13°C° 0 mm 0 mps 742 mmHg 95%

    23 Enero, Jueves

    Tiempo Temperatura Precipitaciones Viento Presión Humedad
    00:00 +13°C° 0 mm 0 mps 742 mmHg 95%
    01:00 +13°C° 0 mm 0 mps 742 mmHg 95%
    02:00 +14°C° 0 mm 0 mps 742 mmHg 94%
    03:00 +14°C° 0 mm 0 mps 742 mmHg 94%
    04:00 +14°C° 0 mm 0 mps 743 mmHg 93%
    05:00 +15°C° 0 mm 0 mps 743 mmHg 89%
    06:00 +19°C° 0 mm 1 mps 743 mmHg 85%
    07:00 +20°C° 0 mm 1 mps 744 mmHg 80%
    08:00 +22°C° 0 mm 1 mps 744 mmHg 72%
    09:00 +24°C° 0 mm 2 mps 744 mmHg 64%
    10:00 +26°C° 0 mm 2 mps 744 mmHg 56%
    11:00 +27°C° 0 mm 3 mps 744 mmHg 53%
    12:00 +28°C° 0 mm 3 mps 744 mmHg 49%
    13:00 +29°C° 0 mm 4 mps 743 mmHg 46%
    14:00 +28°C° 0 mm 4 mps 743 mmHg 48%
    15:00 +28°C° 0 mm 3 mps 743 mmHg 50%
    16:00 +27°C° 0 mm 3 mps 743 mmHg 52%
    17:00 +24°C° 0 mm 2 mps 743 mmHg 63%
    18:00 +20°C° 0 mm 2 mps 743 mmHg 75%
    19:00 +18°C° 0 mm 1 mps 744 mmHg 86%
    20:00 +16°C° 0 mm 1 mps 744 mmHg 89%
    21:00 +15°C° 0 mm 1 mps 744 mmHg 92%
    22:00 +12°C° 0 mm 0 mps 744 mmHg 94%
    23:00 +13°C° 0 mm 0 mps 744 mmHg 94%

    24 Enero, Viernes

    Tiempo Temperatura Precipitaciones Viento Presión Humedad
    00:00 +13°C° 0 mm 0 mps 743 mmHg 93%
    01:00 +13°C° 0 mm 0 mps 743 mmHg 92%
    02:00 +13°C° 0 mm 0 mps 743 mmHg 91%
    03:00 +13°C° 0 mm 0 mps 743 mmHg 91%
    04:00 +13°C° 0 mm 0 mps 743 mmHg 90%
    05:00 +16°C° 0 mm 0 mps 743 mmHg 80%
    06:00 +19°C° 0 mm 0 mps 744 mmHg 70%
    07:00 +24°C° 0 mm 1 mps 744 mmHg 61%
    08:00 +26°C° 0 mm 1 mps 744 mmHg 54%
    09:00 +28°C° 0 mm 2 mps 744 mmHg 47%
    10:00 +30°C° 0 mm 3 mps 744 mmHg 40%
    11:00 +31°C° 0 mm 3 mps 744 mmHg 39%
    12:00 +32°C° 0 mm 4 mps 744 mmHg 37%
    13:00 +32°C° 0 mm 4 mps 743 mmHg 36%
    14:00 +32°C° 0 mm 4 mps 743 mmHg 37%
    15:00 +30°C° 0 mm 4 mps 743 mmHg 37%
    16:00 +29°C° 0 mm 3 mps 743 mmHg 38%
    17:00 +25°C° 0 mm 2 mps 743 mmHg 52%
    18:00 +20°C° 0 mm 2 mps 743 mmHg 67%
    19:00 +16°C° 0 mm 1 mps 744 mmHg 81%
    20:00 +14°C° 0 mm 0 mps 744 mmHg 82%
    21:00 +14°C° 0 mm 0 mps 744 mmHg 83%
    22:00 +13°C° 0 mm 0 mps 744 mmHg 85%
    23:00 +13°C° 0 mm 0 mps 743 mmHg 85%

    25 Enero, Sábado

    Tiempo Temperatura Precipitaciones Viento Presión Humedad
    00:00 +12°C° 0 mm 0 mps 743 mmHg 85%
    01:00 +12°C° 0 mm 0 mps 743 mmHg 86%
    02:00 +12°C° 0 mm 0 mps 743 mmHg 85%
    03:00 +12°C° 0 mm 0 mps 743 mmHg 85%
    04:00 +12°C° 0 mm 0 mps 743 mmHg 85%
    05:00 +15°C° 0 mm 0 mps 744 mmHg 74%
    06:00 +21°C° 0 mm 1 mps 744 mmHg 63%
    07:00 +24°C° 0 mm 1 mps 744 mmHg 52%
    08:00 +26°C° 0 mm 1 mps 744 mmHg 46%
    09:00 +29°C° 0 mm 2 mps 744 mmHg 40%
    10:00 +31°C° 0 mm 3 mps 745 mmHg 34%
    11:00 +31°C° 0 mm 3 mps 744 mmHg 33%
    12:00 +33°C° 0 mm 4 mps 744 mmHg 32%
    13:00 +33°C° 0 mm 4 mps 744 mmHg 30%
    14:00 +32°C° 0 mm 4 mps 744 mmHg 31%
    15:00 +31°C° 0 mm 3 mps 744 mmHg 32%
    16:00 +30°C° 0 mm 3 mps 744 mmHg 33%
    17:00 +26°C° 0 mm 2 mps 744 mmHg 47%
    18:00 +20°C° 0 mm 2 mps 744 mmHg 61%
    19:00 +16°C° 0 mm 1 mps 744 mmHg 75%
    20:00 +15°C° 0 mm 1 mps 744 mmHg 77%
    21:00 +13°C° 0 mm 0 mps 745 mmHg 78%
    22:00 +12°C° 0 mm 0 mps 745 mmHg 80%
    23:00 +12°C° 0 mm 0 mps 744 mmHg 79%
    Mostrar más